Regional Weather Roundup
Issued by NWS Cleveland, OH

Home | Current Version | Previous Version | Graphics & Text | Print | Product List | Glossary On
Versions: 1 2 3 4 5 6 7 8 9 10 11 12 13 14 15 16 17 18 19 20 21 22 23 24 25 26 27 28 29 30 31 32 33 34 35 36 37 38 39 40 41 42 43 44 45 46 47 48 49 50
000
ASUS41 KCLE 150312
RWRCLE
OHIO REGIONAL WEATHER ROUNDUP
NATIONAL WEATHER SERVICE WILMINGTON, OH
1000 PM EST THU DEC 14 2017

NOTE: "FAIR" INDICATES FEW OR NO CLOUDS BELOW 12,000 FEET WITH NO
SIGNIFICANT WEATHER AND/OR OBSTRUCTIONS TO VISIBILITY.

OHZ001>008-015>018-024>027-034-035-043-044-150400-
   NORTHWEST OHIO

CITY           SKY/WX    TMP DP  RH WIND       PRES   REMARKS
DEFIANCE       CLOUDY    10   4  76 S3        30.09R
FINDLAY        FAIR      11   3  70 S3        30.08R
TOLEDO EXPRESS FAIR       7   4  87 CALM      30.07F
TOLEDO EXEC    FAIR       3  -2  79 S5        30.09F WCI  -6
LIMA           FAIR      14  11  87 CALM      30.07S
$$

OHZ009>014-019>023-028>033-038-089-150400-
   NORTHEAST OHIO

CITY           SKY/WX    TMP DP  RH WIND       PRES   REMARKS
CLE-HOPKINS    FAIR      13  10  88 SW3       30.10S
CLE-LAKEFRONT  FAIR      15   6  67 SW8       30.08S WCI   4
CUY CO. ARPT   CLEAR     14  10  85 SW8       30.07S WCI   3
LORAIN-ELYRIA  FAIR       4   0  83 SW6       30.08S WCI  -7
ASHTABULA      CLOUDY    19  13  77 SW7       30.05S WCI  10
AKRON-CANTON   FAIR      16  11  80 CALM      30.04R
WOOSTER        FOG        5   3  91 CALM      30.06R VSB 3/4
MANSFIELD      FAIR      14  11  87 W3        30.04S
YOUNGSTOWN     MOCLDY    13   9  84 CALM      30.03S
$$

OHZ042-051>053-060>062-070>072-077>081-150400-
  SOUTHWEST OHIO

CITY           SKY/WX    TMP DP  RH WIND       PRES   REMARKS
CINC-COVINGTON CLOUDY    25  16  68 NE7       30.07S WCI  17
CINC-LUNKEN    FAIR      24  17  74 NE3       30.12R
HAMILTON       FAIR      21  18  88 CALM      30.11R
DAYTON         CLOUDY    20  17  88 W3        30.08R
WRIGHT-PAT AFB CLOUDY    20  15  84 CALM      30.08R
DAYTON GENERAL FAIR      21  15  78 CALM      30.07R
WILMINGTON     FAIR      21  16  81 N6        30.06R WCI  13
$$

OHZ036-037-039>041-045>050-054>059-063>069-073>076-082>088-150400-
  CENTRAL AND SOUTHEAST OHIO

CITY           SKY/WX    TMP DP  RH WIND       PRES   REMARKS
COLUMBUS       CLOUDY    22  17  81 CALM      30.08R
OSU AIRPORT    FAIR      20  16  84 CALM      30.08R
BOLTON FIELD   FAIR      20  17  86 CALM      30.08R
RICKENBACK AFB FAIR      22  17  78 N3        30.08R
NEWARK         FAIR      20  15  81 CALM      30.07R
MARION         NOT AVBL
LANCASTER      FAIR      20  16  84 CALM      30.08S
ZANESVILLE     FAIR      22  14  71 CALM      30.07R
NEW PHILLY     FAIR      15  11  83 CALM      30.08S
$$




USA.gov is the U.S. government's official web portal to all federal, state and local government web resources and services.